Location: Fosso Corella
(43.9167°N, 11.5667°E)
Time: 02:34:38
(UTC+00:00)

STARLINK-1276 - Pass Details

Date: 07 June 2020
Orbit: 548 x 551 km, 53.0° (Epoch: 05 July)

Event Time Altitude Azimuth Distance (km) Brightness Sun altitude
Exits shadow 00:54:44 51° 184° (S) 694 3.7 -19.3°
Maximum altitude 00:55:26 60° 141° (SE) 630 3.7 -19.3°
Drops below altitude 10° 00:59:31 10° 61° (ENE) 1,824 7.1 -18.9°
Sets 01:01:46 0° 58° (ENE) 2,721 8.2 -18.8°
